Theta_e
331 324 312 308 298 296 291 294 300 300 302 307 309 308 308 310 308 301 323 332 338 340 343 344 346 346 342 341 341 341 341 341 342 341 340 340 339 338 338 338 337 337 338 338 338 338 337 336 335
325 320 311 301 293 289 291 294 299 301 307 314 312 311 309 304 317 320 325 333 339 341 343 343 344 346 343 341 341 341 341 342 341 344 341 339 338 338 338 337 337 336 336 337 337 337 337 336 335
322 313 305 298 292 289 291 298 300 304 312 308 309 313 310 309 317 323 327 337 339 340 341 341 343 345 342 340 341 341 341 342 341 343 342 340 338 337 337 337 336 336 335 336 337 336 336 336 336
315 312 303 296 292 295 297 300 303 304 305 309 310 306 312 321 322 327 334 337 337 340 339 340 344 344 342 342 340 340 340 341 343 341 344 341 339 338 337 336 336 335 334 334 335 336 335 335 335
314 307 296 294 293 297 299 303 304 302 302 305 307 303 308 320 326 331 333 336 336 338 337 339 342 343 343 340 339 339 340 341 340 343 342 343 340 338 337 336 335 334 334 333 333 334 333 333 334
307 306 295 292 293 298 301 304 303 302 303 305 308 308 309 320 326 328 331 333 336 335 337 338 336 339 341 341 340 340 339 340 339 340 340 343 340 339 336 335 334 334 333 332 331 331 331 331 331
305 301 297 295 294 297 301 304 300 302 301 302 311 304 309 316 324 327 328 331 332 334 335 336 336 335 335 337 337 338 339 337 338 338 337 337 338 339 338 337 335 333 332 331 330 329 328 328 329
306 303 297 296 295 296 300 303 302 301 299 310 314 304 305 317 324 327 328 329 330 332 334 336 334 334 333 333 332 333 335 335 335 334 331 329 330 331 330 329 333 334 332 330 329 329 328 327 325
307 298 297 300 298 299 302 301 303 306 307 309 313 310 313 322 323 323 324 329 331 333 333 334 335 331 331 331 329 329 330 331 331 329 327 324 322 322 322 324 328 333 334 333 331 329 329 328 324
303 296 299 303 302 301 303 303 304 305 307 307 310 315 319 321 320 321 321 324 326 328 329 332 333 334 330 333 329 328 329 327 326 325 323 322 321 320 322 319 323 328 329 332 333 332 330 324 315
305 297 302 305 305 305 303 302 305 304 302 306 308 314 318 317 318 319 320 322 326 328 329 329 331 333 333 333 328 325 325 324 323 322 322 320 320 318 318 317 318 318 319 321 323 323 321 318 315
301 305 305 307 307 306 302 304 300 303 303 306 311 318 319 319 319 318 318 318 320 321 325 326 328 331 332 333 332 326 325 323 321 322 321 319 317 316 316 316 316 316 317 316 316 317 318 318 317
300 301 304 306 306 305 306 303 302 304 306 313 313 319 319 320 320 321 320 319 318 319 322 324 326 328 331 331 331 331 329 328 323 321 321 319 317 316 315 315 315 315 316 315 314 313 314 314 314
297 299 300 302 303 304 303 303 305 306 307 309 317 317 318 319 320 318 319 320 318 319 321 322 324 327 328 330 330 330 330 330 327 322 321 320 318 316 315 314 314 314 314 315 314 313 312 312 311
300 296 298 299 299 301 304 300 302 306 305 307 314 315 317 318 319 319 321 322 322 321 319 320 322 326 326 329 330 330 329 329 328 327 322 321 319 317 316 315 314 315 314 314 312 312 311 311 312
296 294 289 295 300 301 301 290 297 306 305 306 306 310 314 317 319 321 321 320 322 322 320 319 322 322 326 327 329 330 330 329 328 328 326 323 322 319 316 316 315 315 314 313 311 311 309 309 309
292 285 287 292 299 298 299 293 297 300 303 304 304 305 305 307 310 318 320 322 321 321 321 319 319 321 321 325 327 328 329 329 328 328 326 323 323 322 320 318 318 316 314 313 313 312 311 310 310
286 286 289 288 292 294 294 296 298 299 299 300 300 300 300 301 304 307 311 321 322 321 322 321 319 320 320 321 322 323 323 326 328 327 326 324 324 323 321 320 319 315 314 313 311 313 310 312 312
291 289 286 289 294 291 291 292 296 298 298 299 298 298 298 299 303 303 304 308 314 319 320 321 319 319 319 316 315 318 321 323 322 325 326 325 324 323 322 322 319 317 316 316 313 313 310 311 307
290 288 287 290 293 291 291 290 293 294 294 299 301 300 299 300 301 303 303 304 307 311 319 319 319 317 319 320 318 316 317 317 321 323 323 325 325 324 322 322 321 318 317 316 314 312 311 309 308
290 288 286 287 291 291 289 289 290 296 295 297 298 300 301 302 304 305 302 302 303 306 310 316 318 317 318 319 315 314 314 314 314 316 318 321 322 322 322 322 322 319 317 318 315 314 313 313 309
289 292 291 289 287 282 287 279 285 289 291 294 297 298 300 302 303 304 302 301 301 303 304 312 316 315 316 317 316 314 315 314 314 315 317 318 319 319 320 321 320 319 318 317 318 316 315 313 312
291 295 293 291 286 283 282 282 284 287 288 290 293 297 299 301 301 301 301 302 301 302 302 304 309 316 315 316 316 315 313 314 315 315 315 315 316 318 318 318 319 319 319 319 317 316 315 316 315
295 292 291 289 287 276 284 283 280 285 289 291 293 294 296 297 297 299 301 301 302 302 304 309 308 312 317 315 315 315 314 315 315 314 314 315 315 316 317 317 317 317 317 317 318 318 318 318 316
293 288 280 276 278 277 280 282 285 287 291 291 293 293 294 293 295 294 297 300 299 299 301 303 305 306 314 315 315 315 315 315 315 315 315 314 313 313 314 315 315 316 317 318 318 318 318 318 317
292 289 279 272 274 276 282 279 283 290 293 293 294 294 294 294 295 297 298 298 298 298 299 299 299 299 300 302 301 303 304 305 304 304 303 303 304 305 307 306 310 313 315 317 317 317 318 318 317
290 288 289 280 271 274 278 281 286 289 289 291 291 292 293 295 295 296 297 296 296 296 297 298 298 298 299 299 298 298 299 299 299 300 300 300 301 303 303 303 304 305 307 311 313 316 317 318 318
293 294 285 281 271 269 276 278 281 284 288 291 291 292 294 295 294 295 295 295 295 295 295 296 297 298 298 298 297 297 298 298 298 298 298 298 298 299 299 300 301 301 302 304 305 308 312 314 316
290 288 288 287 280 274 271 277 284 288 289 290 291 292 293 295 294 294 294 295 295 295 295 295 296 297 297 296 296 296 296 296 297 296 296 296 296 296 296 297 298 298 298 299 300 301 304 305 307
294 290 290 283 281 282 279 279 286 287 289 289 291 292 292 294 294 294 294 294 294 293 294 295 296 297 297 296 295 294 295 294 293 293 294 294 294 294 294 294 294 295 295 296 296 297 299 301 302
Wind_Speed
9 5 2 6 7 6 1 3 1 3 1 1 3 4 5 2 4 4 3 4 9 10 6 7 12 12 12 12 11 11 11 12 11 13 13 12 11 11 10 12 11 11 10 13 13 14 13 12 11
6 1 5 3 7 4 5 3 6 4 4 6 4 2 3 0 1 2 5 4 8 9 7 7 11 12 12 11 10 10 10 10 9 11 14 12 11 10 10 10 10 11 10 11 12 12 12 11 9
2 4 5 5 4 4 4 3 3 2 6 1 3 2 2 2 1 6 2 8 7 6 6 7 11 12 12 11 9 9 8 9 9 9 14 11 11 10 9 9 9 10 9 9 10 10 10 10 8
4 5 5 6 2 2 3 5 4 5 2 1 3 4 1 1 5 5 8 9 8 6 6 8 10 11 12 11 11 9 9 9 8 7 13 13 11 10 9 8 8 8 8 8 9 9 9 9 7
5 4 5 4 3 1 2 4 6 4 2 2 1 2 1 1 3 8 10 10 11 7 6 7 10 10 10 10 9 8 6 6 2 6 3 13 11 10 9 9 7 7 7 7 7 7 7 8 7
5 3 5 1 2 3 0 4 4 3 2 2 3 4 2 2 5 6 6 8 8 9 7 6 8 9 9 9 9 8 5 3 1 5 4 10 11 9 8 7 7 5 5 4 4 5 6 7 7
5 4 3 3 0 0 3 6 3 5 4 4 7 4 2 2 5 7 6 6 5 5 6 5 6 6 8 8 8 8 6 4 1 2 5 4 7 9 8 7 6 4 3 2 2 2 3 4 5
4 4 1 1 4 3 1 5 2 5 3 3 4 3 4 4 8 7 6 5 5 5 5 8 5 6 6 6 7 6 6 5 2 1 4 6 4 4 5 4 2 5 3 1 0 1 1 2 2
2 4 1 3 5 3 2 3 3 1 5 0 1 3 1 5 9 7 4 5 3 4 7 8 7 5 5 5 5 7 7 7 6 3 1 4 3 3 2 1 1 4 4 4 2 2 3 3 4
3 4 6 3 3 3 4 5 6 4 3 3 2 1 3 7 7 10 8 11 10 9 10 9 9 9 5 4 5 5 4 4 3 3 3 3 3 2 1 1 3 3 5 4 5 4 4 3 2
3 5 5 3 2 2 4 4 5 7 3 7 7 6 7 5 7 9 8 8 14 12 9 10 10 10 10 6 4 2 3 3 3 5 4 3 2 1 1 1 1 1 1 2 3 3 2 3 2
3 4 3 2 2 2 3 3 3 5 5 1 7 7 10 12 12 12 11 9 8 8 10 7 8 10 10 8 5 4 3 3 3 4 5 3 2 3 3 2 3 2 2 3 3 2 4 4 4
4 4 3 3 2 1 0 2 2 6 5 3 3 8 11 11 11 7 7 6 7 9 9 9 8 9 10 10 7 5 6 5 4 4 5 4 4 4 3 4 3 3 3 3 4 4 4 5 5
6 2 0 2 3 2 1 1 1 5 4 2 6 9 8 11 12 5 7 9 10 9 9 8 9 8 7 11 10 6 5 6 5 4 5 6 4 4 4 4 4 4 3 3 3 4 4 4 4
2 4 3 3 2 3 3 8 9 5 2 6 7 7 7 9 7 13 13 13 12 11 8 9 9 8 9 12 11 8 7 5 5 6 6 7 7 6 5 4 4 4 4 5 4 4 3 4 4
4 4 3 3 6 5 7 12 5 9 7 10 8 8 8 10 13 10 8 10 9 7 11 9 10 12 12 10 9 7 7 7 7 6 7 8 8 7 6 5 5 5 4 4 3 4 4 4 4
5 4 3 6 9 4 7 8 7 6 8 10 9 9 8 8 9 10 11 12 11 11 9 11 12 12 12 10 7 8 11 10 9 9 8 8 9 9 8 7 7 6 4 4 4 4 5 5 5
6 4 4 7 3 4 6 12 8 5 5 10 9 9 8 9 14 9 11 13 12 10 11 11 9 11 8 7 6 4 5 7 7 7 7 9 8 9 8 6 7 6 4 5 4 7 4 6 5
5 3 4 3 3 3 8 10 16 9 6 9 10 10 9 11 11 9 8 8 8 8 11 14 13 12 7 4 4 4 8 7 5 7 9 9 8 9 9 7 6 6 8 9 8 5 6 5 4
2 3 4 4 3 1 7 11 12 9 9 14 16 11 11 8 9 11 9 7 8 9 12 9 12 10 11 8 4 4 4 3 4 6 9 10 9 9 8 9 8 8 7 7 7 7 4 4 6
4 6 4 3 4 1 6 14 10 13 8 9 10 12 10 14 17 14 9 9 8 8 9 9 11 10 11 10 4 3 3 2 2 4 4 7 8 8 9 9 8 6 7 7 7 8 10 8 4
11 7 5 3 2 5 1 12 7 6 10 8 10 9 15 16 14 13 8 7 9 10 7 8 8 9 8 9 8 7 7 7 4 4 3 4 7 8 8 9 7 8 6 9 9 6 9 7 10
5 7 8 4 3 3 4 5 6 1 9 5 10 14 13 14 9 9 9 9 7 8 8 8 6 7 8 10 9 8 6 4 2 3 4 4 4 6 7 7 7 8 6 8 8 7 7 8 9
6 6 6 4 3 6 11 7 5 6 9 7 7 6 9 10 9 10 8 7 5 3 5 7 8 6 7 8 8 10 8 6 4 3 3 3 3 3 5 6 6 6 6 7 7 9 10 10 10
7 8 2 1 4 10 1 7 17 4 8 7 9 9 8 6 7 9 7 5 6 7 7 7 8 6 6 7 7 7 7 6 6 4 3 2 1 1 3 4 5 4 6 8 8 8 10 10 9
17 11 7 9 6 4 2 12 9 6 8 8 9 8 8 7 5 6 7 7 8 8 6 7 8 8 7 7 7 6 5 4 3 3 2 2 1 1 3 4 4 5 6 6 6 7 8 9 9
5 14 6 5 2 3 6 8 9 10 10 9 9 4 8 7 4 5 5 6 6 7 8 8 8 7 7 7 6 6 6 6 5 5 3 2 2 2 4 5 5 5 5 6 6 6 9 10 10
12 10 7 2 4 6 5 6 10 4 9 9 10 9 6 5 3 5 6 7 6 5 5 6 7 8 7 7 6 5 6 5 5 5 5 4 3 3 4 5 5 5 5 5 5 5 7 8 7
9 10 5 5 6 6 2 9 9 13 9 9 8 6 7 7 7 7 7 6 5 4 5 6 7 8 7 7 6 6 6 6 5 5 4 3 2 3 4 4 5 5 6 6 5 6 6 6 8
19 15 18 10 17 10 1 11 3 6 6 5 9 8 7 5 6 6 5 5 5 7 7 7 7 8 7 6 6 6 6 6 6 5 4 2 1 1 2 3 4 5 5 6 6 7 7 8 9
Wind_Direction
324 336 68 42 57 66 10 187 172 141 197 295 99 148 184 90 163 204 325 164 137 141 150 143 132 133 142 141 141 134 138 134 133 129 116 112 105 109 108 103 105 101 101 104 101 95 89 81 88
310 353 45 80 85 83 273 268 163 205 159 123 75 65 60 148 90 82 104 200 143 142 142 134 134 139 144 143 139 138 142 138 139 139 122 125 126 121 114 116 109 108 112 115 113 104 90 80 94
339 39 78 86 102 154 185 209 183 90 157 153 111 58 132 171 71 169 225 136 119 120 124 140 139 145 146 145 143 142 147 151 144 138 131 136 134 125 117 113 110 111 112 118 117 106 90 80 82
12 13 39 75 89 213 198 174 177 136 211 81 141 73 316 222 164 187 134 120 122 113 120 144 144 149 151 149 151 148 158 164 157 158 152 144 140 135 131 122 117 113 114 118 123 111 96 84 92
29 53 54 79 331 283 236 165 162 140 141 86 313 181 315 59 64 130 143 136 149 131 138 150 152 152 149 152 152 154 158 162 234 155 165 149 142 142 137 132 126 122 116 119 127 121 102 85 79
28 79 59 86 347 339 158 156 158 145 136 148 71 137 220 321 128 154 144 148 152 152 151 153 156 150 152 158 158 163 167 168 69 131 100 143 140 144 139 135 133 128 125 124 122 115 105 96 89
88 61 148 137 111 331 202 140 175 168 166 218 155 131 264 234 178 146 136 124 133 138 145 149 162 158 158 161 166 168 167 163 84 50 48 130 146 148 143 142 143 146 144 135 116 90 87 96 92
98 87 93 199 169 234 236 173 142 152 214 103 162 203 252 202 149 119 116 128 148 157 158 170 167 167 166 170 170 171 176 180 170 55 50 34 52 104 117 83 212 162 171 190 273 343 357 34 66
116 61 227 213 149 207 190 163 165 89 121 92 225 172 271 128 123 114 123 151 155 180 184 183 180 174 171 176 180 176 179 184 195 206 106 70 72 60 43 18 66 357 187 193 239 287 316 338 4
85 122 220 213 183 195 189 178 172 146 134 243 257 190 97 132 149 164 173 186 193 199 200 194 192 191 177 177 173 189 183 191 187 190 189 166 157 143 119 349 330 336 331 279 218 262 296 349 339
184 195 198 226 204 188 181 164 173 135 224 215 203 173 155 154 174 179 195 193 196 202 204 200 197 199 195 189 181 185 177 180 192 201 202 197 183 185 178 225 276 300 329 303 334 323 318 295 293
177 248 201 190 201 193 187 139 176 177 220 204 216 163 164 173 192 195 197 202 184 190 204 195 193 196 202 205 188 188 184 187 193 203 198 187 196 213 223 226 234 237 243 253 259 266 269 270 264
181 214 211 290 179 186 190 218 222 244 228 68 115 155 181 188 204 209 208 208 206 207 207 203 193 198 203 210 209 203 198 207 206 197 196 187 200 211 209 228 223 229 221 225 241 243 250 259 260
205 192 275 293 293 296 208 271 114 270 212 166 158 197 196 200 203 198 200 216 214 218 212 200 202 203 193 211 214 209 208 210 202 205 199 197 197 204 209 224 231 242 230 241 246 250 257 262 263
128 153 346 241 231 262 124 293 220 234 145 196 218 214 213 222 204 218 220 221 215 219 204 204 200 197 198 209 215 219 221 205 212 221 203 197 194 199 203 212 223 227 216 230 234 258 267 276 272
122 74 155 263 163 242 127 257 265 231 199 226 216 225 223 228 223 226 224 231 222 214 204 201 204 201 205 202 205 211 211 212 211 216 216 205 201 196 201 209 218 214 214 214 215 228 246 246 243
11 184 189 300 203 142 176 255 249 268 194 235 245 239 233 252 246 231 225 227 219 216 212 211 206 209 203 202 196 205 217 221 220 219 213 202 205 200 204 211 220 200 207 209 213 230 218 238 244
180 191 216 205 225 211 222 258 259 277 210 241 252 259 253 252 251 237 226 225 223 208 205 214 210 214 192 185 189 197 204 218 211 213 211 203 211 206 208 220 221 193 200 224 211 232 216 236 243
145 175 182 245 237 194 238 249 261 250 231 253 247 244 244 243 255 251 240 235 228 208 201 210 209 208 173 158 168 211 222 216 213 214 211 208 209 204 207 221 215 202 215 224 211 218 221 249 203
170 180 215 288 297 227 295 266 258 245 228 227 239 237 236 242 251 256 251 223 214 217 216 214 215 192 195 199 188 174 158 199 199 195 211 214 212 207 210 217 223 209 224 232 219 207 233 232 177
202 190 161 211 339 294 326 273 245 256 216 223 233 236 235 231 248 245 233 224 225 225 210 212 214 202 198 193 130 103 89 81 150 212 212 218 214 211 212 221 225 215 210 234 223 214 217 247 222
236 162 158 173 78 246 45 281 257 245 257 228 248 237 237 232 238 252 238 227 213 229 211 213 203 194 192 171 183 183 196 204 207 181 180 199 201 215 215 223 219 222 211 229 236 214 223 221 247
233 161 174 161 150 350 215 284 265 247 271 259 240 242 247 244 232 241 240 240 230 228 214 202 195 194 184 183 188 189 195 203 155 169 201 224 214 220 219 215 220 227 222 237 232 230 219 229 240
142 87 50 60 100 270 232 191 217 204 214 240 243 245 243 252 257 254 247 232 205 172 188 177 167 182 174 176 183 184 192 190 183 189 216 228 231 237 234 230 226 233 234 235 240 239 237 235 235
173 127 121 318 206 240 322 198 251 257 259 230 258 273 264 257 278 264 238 177 159 171 184 144 137 136 162 169 173 181 193 188 206 208 209 250 306 273 279 246 243 235 234 241 246 246 246 236 232
192 178 163 198 203 251 195 233 249 243 284 278 256 249 271 283 277 256 210 178 174 166 163 138 133 120 116 117 119 121 134 133 127 133 139 133 154 306 344 342 323 293 274 262 251 249 252 253 246
172 215 174 106 7 44 225 292 292 252 267 263 274 282 268 280 281 209 182 170 169 164 179 157 135 124 126 125 122 117 120 127 136 126 112 99 58 12 13 1 347 331 316 298 284 273 270 269 258
181 151 183 169 180 253 263 271 238 308 245 259 257 241 244 261 205 183 189 186 192 188 160 144 138 137 138 136 133 137 139 131 126 119 105 88 64 33 16 3 354 339 332 323 316 303 295 289 284
178 195 205 170 163 190 275 259 216 225 205 227 270 277 251 228 208 195 208 211 194 174 169 156 145 144 149 149 144 143 139 126 111 108 102 90 70 31 14 354 344 337 330 326 321 305 293 289 290
207 200 201 206 213 232 310 260 325 213 200 227 262 250 252 240 215 204 198 204 198 193 185 179 166 161 167 158 154 151 141 137 136 140 144 130 119 34 359 346 335 325 320 318 314 310 307 303 301